Wind_Speed
5 6 7 9 10 10 10 11 12 13 14 15 16 16 16 17 18 16 18 21 21 22 22 22 22 23 22 22 19 22 25 25 18 28 28 32 34 36 35 32 32 29 29
4 5 6 7 7 8 10 10 11 12 13 14 14 15 16 17 18 15 20 23 23 24 24 24 23 23 23 19 23 23 21 26 26 26 29 30 31 33 35 35 31 25 28
3 3 4 4 6 7 8 9 10 11 12 13 14 16 17 18 17 16 21 25 23 23 24 24 25 23 20 22 20 20 24 21 28 27 29 29 29 31 33 32 30 33 32
4 3 2 2 3 4 6 8 10 11 12 13 14 15 17 18 11 19 24 27 27 25 25 25 24 21 25 20 20 20 22 24 25 27 27 27 26 29 27 29 31 33 37
6 4 2 1 1 3 5 7 9 10 11 12 14 15 16 17 14 20 27 29 25 25 25 24 23 26 23 27 28 25 26 27 26 27 27 28 27 26 26 28 28 31 34
7 5 3 2 1 2 5 7 9 10 11 13 14 15 16 16 16 22 28 30 25 23 25 25 26 26 28 29 27 29 29 28 27 27 27 26 30 28 28 29 27 23 13
8 6 5 3 1 2 4 7 9 10 11 13 14 15 16 17 16 24 25 26 23 23 25 26 28 28 29 29 30 29 28 30 31 31 31 28 31 30 32 32 30 29 28
10 8 6 4 2 2 3 7 10 9 12 13 15 16 17 16 20 21 27 23 24 25 26 27 29 32 31 32 31 31 31 31 30 30 31 33 31 33 34 34 35 33 31
10 8 6 4 2 3 6 8 10 10 13 13 14 17 17 17 18 25 25 25 25 28 28 29 30 32 30 34 34 33 33 32 31 28 31 35 36 35 33 33 26 23 18
12 9 7 4 2 3 5 7 9 11 13 14 16 16 15 18 19 22 26 25 26 28 32 31 30 31 34 39 38 35 31 32 33 35 36 36 33 32 30 27 27 21 21
12 9 7 5 4 4 5 6 9 11 13 14 14 15 16 15 19 23 24 25 27 34 33 34 33 34 39 43 36 37 34 38 38 34 31 29 28 29 30 29 28 27 23
13 11 8 6 4 3 4 7 8 9 11 13 16 17 16 17 18 22 21 27 33 32 33 35 35 40 41 37 35 33 34 34 32 27 25 25 25 26 28 30 30 29 28
14 12 10 7 5 4 4 5 6 8 10 12 14 17 19 18 21 20 25 31 34 34 33 35 39 38 37 34 31 32 30 28 25 23 24 26 26 29 30 29 28 26 25
16 13 11 8 6 5 4 5 6 7 9 11 14 16 19 20 19 22 30 33 35 33 32 36 36 32 28 29 29 29 28 28 27 26 26 28 28 25 24 26 24 23 22
17 14 12 8 5 4 5 6 7 9 11 14 16 16 18 19 21 25 29 36 35 36 37 31 27 26 28 28 29 28 28 28 26 25 25 25 25 23 23 23 22 22 17
17 15 13 11 8 5 5 7 9 11 11 13 15 16 19 21 22 24 31 35 33 31 31 24 26 26 27 29 29 29 28 28 27 26 25 24 22 22 21 22 21 17 18
17 15 12 11 8 5 5 8 10 11 12 12 13 14 19 20 16 25 33 30 30 28 23 24 25 26 28 29 30 30 30 30 30 27 25 24 22 20 20 20 18 18 17
17 16 15 10 7 6 6 5 9 11 15 15 14 16 14 15 23 28 29 27 24 25 24 24 26 27 29 30 30 30 31 32 30 28 26 23 22 20 19 17 18 18 15
17 14 13 10 8 8 8 8 8 11 13 15 16 14 15 18 24 23 25 22 23 24 25 26 27 28 29 30 31 31 31 31 31 28 25 22 21 20 18 19 19 18 7
17 16 15 13 9 7 6 7 8 10 12 14 14 14 17 20 22 23 23 22 22 24 27 27 28 28 30 31 31 31 31 31 29 27 24 21 21 21 20 19 14 9 12
18 17 16 13 9 8 7 7 8 10 12 13 14 14 18 19 21 21 22 23 24 26 28 29 29 29 31 31 30 31 30 30 28 26 23 22 23 21 16 9 8 11 13
21 17 16 14 11 9 8 7 8 10 11 13 15 15 16 19 17 20 22 24 27 28 28 29 29 30 30 30 31 30 28 28 28 27 23 22 18 13 9 9 11 12 14
23 20 15 13 11 10 10 9 6 9 11 12 14 17 17 20 19 21 23 25 27 28 29 30 30 30 30 31 31 30 28 28 28 25 20 17 11 8 7 8 10 11 15
24 21 18 14 13 12 9 9 9 9 11 12 15 17 18 20 20 22 22 25 26 26 29 30 29 30 31 31 29 29 28 25 21 19 13 10 7 6 8 11 13 13 16
24 21 18 16 14 13 11 10 9 10 12 13 15 17 16 19 20 22 22 25 25 26 29 30 29 30 30 30 27 29 24 21 17 13 10 7 6 8 10 12 14 16 18
24 22 20 17 14 13 11 9 9 10 10 12 13 14 17 19 20 20 23 23 25 28 28 29 30 30 29 27 27 25 21 18 15 10 6 4 6 9 11 13 16 17 16
Wind_Direction
89 73 57 44 38 34 27 19 10 5 1 1 1 1 1 1 1 4 7 358 355 350 348 346 342 340 337 335 341 343 332 319 317 316 320 324 324 322 322 325 324 323 322
101 70 55 44 34 26 17 10 2 358 359 358 358 359 359 359 360 11 5 357 352 346 343 341 337 335 334 339 341 333 328 330 325 324 324 325 322 323 324 325 326 331 328
107 89 65 39 28 18 8 2 358 356 358 358 358 359 359 357 356 356 357 350 346 341 338 333 328 331 346 343 340 336 326 329 325 315 314 315 317 322 322 321 326 327 327
147 136 107 52 26 11 2 0 357 356 357 356 356 356 355 349 344 348 346 347 341 337 334 330 332 342 348 347 346 334 330 325 320 315 314 315 315 317 320 322 319 320 322
167 168 146 123 47 13 4 1 356 356 355 353 353 354 351 350 345 346 347 346 342 333 333 332 332 333 332 331 337 328 323 320 317 315 313 314 314 317 316 314 314 313 316
178 173 165 152 70 3 2 359 355 354 355 352 352 349 350 349 340 346 343 343 341 336 332 334 332 331 328 326 322 319 316 311 305 307 305 304 303 305 307 310 309 314 313
180 180 179 184 237 339 359 354 348 351 347 346 344 345 347 343 335 340 342 346 339 338 334 332 328 324 325 321 319 318 315 310 305 302 299 298 301 304 307 308 306 300 298
186 185 188 199 239 305 321 332 348 344 338 337 337 342 341 340 333 346 346 347 339 333 331 329 325 322 322 322 325 320 314 310 304 302 299 298 297 297 296 296 294 292 290
193 189 193 200 242 305 324 337 336 328 328 331 334 336 337 339 344 344 347 344 336 331 327 323 319 318 318 321 320 314 312 307 308 304 303 304 303 305 305 299 291 291 293
192 190 188 199 243 287 309 315 318 321 321 326 329 335 341 337 342 341 344 341 334 331 326 324 322 321 321 320 315 313 308 305 309 309 307 309 312 311 309 298 294 295 297
184 182 185 199 233 272 293 307 315 319 323 327 333 336 336 337 333 337 344 342 341 331 325 323 321 322 319 319 322 313 305 312 309 305 300 300 301 303 308 307 302 292 291
176 182 189 203 225 266 290 305 315 323 327 331 333 331 334 334 335 338 340 339 339 330 321 318 317 318 321 323 321 318 316 317 312 304 305 305 302 302 303 309 308 306 300
180 188 194 202 218 248 288 302 317 316 327 327 329 330 329 332 332 335 333 336 334 329 320 316 319 325 324 321 322 320 319 315 307 305 307 305 304 304 307 308 309 309 307
186 192 195 203 217 239 266 281 298 311 316 322 329 325 323 323 327 331 332 331 332 329 322 320 324 319 321 320 320 322 321 315 308 301 300 303 306 308 307 312 307 310 310
190 192 194 197 200 238 259 280 283 289 297 306 315 315 311 309 323 330 332 333 332 328 331 324 322 327 326 325 324 322 321 319 315 312 308 307 309 309 306 315 312 310 307
189 189 189 199 216 235 270 292 302 312 311 314 322 317 318 312 324 330 334 335 334 339 332 328 329 328 324 324 324 323 323 324 322 318 313 307 306 311 312 316 314 311 309
186 180 191 198 217 231 262 286 302 314 318 321 323 324 325 324 338 336 338 337 338 339 332 330 327 325 322 322 324 326 325 324 324 320 317 315 313 314 316 315 313 314 307
188 187 186 186 202 226 258 277 302 310 316 321 325 329 332 337 336 335 339 337 334 337 334 327 325 324 323 325 325 325 325 326 326 325 320 318 319 318 317 315 316 309 314
184 187 191 197 201 224 250 283 298 302 308 313 322 328 326 329 334 335 339 334 329 328 326 325 324 325 325 325 326 326 326 325 324 324 326 325 327 328 321 317 316 325 13
183 186 178 184 207 228 246 267 288 300 306 312 316 325 330 330 335 334 335 332 328 325 323 324 326 326 326 325 326 328 328 328 329 329 328 331 333 332 322 325 338 67 75
183 185 191 207 214 218 236 260 285 295 303 306 312 317 326 326 328 329 332 330 327 327 325 324 324 327 328 326 328 330 329 330 332 333 333 336 338 337 349 21 73 88 97
183 194 194 205 205 211 235 251 267 291 296 303 307 316 319 326 324 327 328 327 328 330 327 326 326 329 328 329 330 330 331 332 333 334 334 339 350 357 14 73 87 95 98
181 183 189 192 202 211 230 260 268 283 294 299 305 311 316 324 324 325 325 327 329 331 333 332 329 332 333 335 337 338 333 333 338 344 335 340 358 19 60 82 93 97 100
186 188 189 193 202 215 228 237 266 280 290 296 304 308 315 317 318 326 325 327 328 331 333 334 333 335 338 338 340 339 340 343 344 350 356 357 11 42 79 94 102 105 111
188 188 189 193 202 214 226 236 259 270 286 299 303 310 311 317 320 325 326 329 330 330 335 335 338 339 339 339 340 337 343 347 349 355 5 17 55 84 99 104 106 108 111
187 189 194 198 206 215 228 241 252 271 291 300 304 307 311 315 320 324 326 328 329 331 335 338 339 342 341 340 339 341 347 351 353 357 6 40 91 105 110 111 114 113 114
Height
860 860 860 859 859 859 861 860 860 859 859 856 854 852 851 848 845 843 841 838 835 832 829 826 822 819 816 813 809 807 803 799 790 781 777 770 764 758 752 748 744 739 735
859 859 858 859 861 860 860 860 860 860 859 857 855 853 851 849 846 843 841 838 835 832 829 825 822 818 815 812 809 806 803 799 793 782 777 770 766 759 752 746 741 738 733
858 858 859 860 860 861 861 861 861 860 859 857 855 853 851 849 846 843 842 839 835 832 829 825 821 817 814 811 808 805 802 797 793 785 776 772 765 760 752 745 739 734 731
858 859 860 861 862 862 862 862 861 860 858 857 855 853 851 849 845 843 840 837 834 831 828 824 821 817 814 809 807 804 800 795 790 783 775 769 764 759 754 747 737 735 728
857 859 860 861 861 861 861 861 860 859 858 856 854 852 851 848 844 842 839 836 833 829 826 823 820 817 814 809 805 801 798 793 787 780 773 766 761 755 751 746 740 734 728
855 857 859 860 860 860 860 860 858 857 856 855 853 852 849 847 843 840 838 834 831 828 825 821 818 814 810 806 803 799 795 789 783 778 771 764 757 753 747 743 737 731 721
853 855 856 857 858 858 859 858 857 856 855 854 852 850 848 846 842 839 837 834 831 827 824 820 815 812 807 803 798 793 789 785 781 774 766 761 754 750 745 738 735 730 724
850 852 853 855 856 857 857 856 855 854 853 852 850 849 847 845 842 838 835 833 829 825 821 818 813 807 803 799 793 788 783 778 773 768 763 756 751 746 742 737 730 723 718
846 849 851 853 854 855 855 854 853 853 852 850 849 847 845 844 840 837 835 831 827 822 818 815 810 804 800 796 790 783 777 770 766 761 756 750 744 739 735 729 723 718 710
843 845 848 850 852 852 853 853 852 851 850 848 847 846 844 841 839 836 833 830 826 821 815 809 805 801 795 790 785 778 770 763 758 752 747 741 737 732 728 725 720 714 709
839 843 846 848 849 850 851 851 850 850 848 847 845 843 841 839 837 835 832 828 825 818 811 804 800 796 790 784 778 773 766 759 753 747 741 736 732 727 722 719 715 711 706
837 841 843 846 847 848 849 849 849 848 847 844 842 840 839 837 835 833 830 828 824 818 810 803 796 790 784 778 772 766 761 755 748 742 737 732 727 723 718 713 709 705 701
836 839 841 844 845 846 847 847 846 846 845 843 841 839 837 835 833 831 828 825 821 814 809 800 792 785 778 772 767 762 756 751 745 739 734 728 723 718 713 708 704 700 696
833 836 839 841 843 844 845 844 844 843 843 842 839 837 835 833 831 828 825 820 815 809 803 795 787 782 776 771 763 758 753 748 742 736 730 724 719 714 710 705 700 696 692
829 833 836 838 840 841 842 841 841 841 840 839 837 835 833 830 829 827 823 817 812 806 798 790 784 779 773 767 761 755 749 744 738 732 727 721 716 711 706 702 698 694 690
825 829 832 834 836 838 838 838 838 837 836 835 834 832 830 828 826 824 820 815 809 802 795 790 784 779 772 765 759 752 746 741 735 729 723 718 713 708 703 699 695 692 688
821 825 828 831 833 834 835 835 834 834 833 832 831 829 827 825 823 820 816 811 806 801 796 790 784 778 771 765 758 751 744 738 732 726 720 715 710 706 702 697 693 690 684
818 821 823 827 830 831 832 832 832 831 830 829 829 827 825 823 820 817 813 808 804 800 795 789 783 777 770 764 757 750 743 736 730 724 718 713 708 704 700 696 692 687 683
815 818 821 824 827 828 829 829 829 829 828 826 825 824 823 821 818 816 812 808 803 798 793 787 781 775 769 763 756 749 742 734 728 721 716 711 707 703 699 695 690 686 683
811 815 817 820 823 825 825 826 826 826 825 824 823 822 820 818 815 812 810 806 802 797 791 785 779 774 767 761 754 747 740 733 726 721 715 711 706 702 698 694 690 689 688
807 811 814 817 819 821 823 823 823 823 823 822 821 819 818 816 813 811 807 804 800 795 789 783 776 771 765 758 752 746 739 732 726 720 715 711 706 702 698 695 694 693 693
803 807 810 813 816 818 820 820 820 820 820 820 818 817 815 813 811 808 805 801 797 793 787 781 774 769 763 757 751 744 738 731 725 720 715 711 707 704 701 699 698 698 698
799 803 806 810 813 814 816 817 818 818 818 817 816 814 812 810 809 806 803 799 794 789 784 778 772 766 760 755 749 743 737 731 725 719 714 711 708 706 704 703 703 702 703
795 799 803 806 809 811 813 814 814 815 815 814 813 811 810 808 805 803 799 795 791 786 781 775 769 764 757 752 746 741 735 729 724 719 716 713 711 709 708 707 707 707 708
791 795 799 802 805 807 809 810 811 811 811 811 809 808 806 805 803 800 796 792 788 783 777 772 767 761 755 750 744 738 733 728 723 720 718 715 713 712 712 711 711 712 713
786 791 794 798 801 803 805 806 807 807 807 807 806 805 804 802 800 797 793 789 785 780 775 769 764 759 753 747 742 736 731 727 723 721 719 717 716 716 715 715 716 717 718